Temperature
21 20 20 20 19 19 21 22 23 23 22 22 23 22 21 20 20 20 20 20 20 20 20 19 19 19 19 19 19 19 19 19 19 19 19 19 19 19 19 19 19 19 19 18 18 18 18 18 19
21 20 20 20 19 20 21 22 22 22 23 23 23 22 21 20 20 20 20 20 20 20 20 19 19 19 19 19 19 19 19 19 19 19 19 19 19 19 19 19 19 19 19 18 18 18 18 18 18
21 20 20 19 20 20 22 23 22 23 23 23 22 22 21 20 20 21 21 20 20 20 20 19 19 19 19 19 19 19 19 19 19 19 19 19 19 19 19 19 19 19 18 18 18 18 18 18 18
21 20 20 20 21 22 22 23 23 23 23 23 22 21 20 20 21 21 21 20 20 20 20 20 19 19 19 19 19 19 19 19 19 19 19 19 19 19 19 19 19 18 18 18 18 18 18 18 18
21 21 20 20 22 23 23 24 24 23 23 22 22 20 20 20 21 21 21 20 20 20 20 20 19 19 19 19 19 19 19 19 19 19 19 19 19 19 19 19 18 18 18 18 18 18 18 18 18
21 20 20 21 22 23 24 24 23 23 22 22 21 20 20 20 21 21 21 20 20 20 20 20 19 19 19 19 19 19 19 19 19 19 19 19 19 19 19 19 18 18 18 18 18 18 18 18 18
21 20 21 22 22 23 24 24 23 23 22 22 22 20 20 20 21 21 20 20 20 20 20 20 20 19 19 19 19 19 19 19 19 19 19 19 19 19 19 19 18 18 18 18 18 18 18 18 18
22 20 22 22 22 23 24 24 24 23 23 23 22 20 20 20 20 20 20 20 20 20 20 20 20 19 19 19 19 19 19 19 19 19 19 19 19 19 19 19 18 18 18 18 18 18 18 18 18
22 20 21 22 23 23 24 24 24 24 23 23 22 22 22 21 20 20 20 20 20 20 20 20 20 19 19 19 19 19 19 19 19 19 19 19 19 19 18 18 18 18 18 18 18 18 18 18 18
22 21 22 23 23 23 24 24 24 23 23 22 22 22 21 21 20 20 20 20 20 20 20 20 20 19 19 19 19 19 19 19 19 19 19 19 19 19 18 18 18 18 18 18 18 18 18 18 18
22 22 23 24 24 24 24 24 24 23 22 22 22 21 21 21 20 20 21 21 20 20 20 20 20 20 19 19 19 19 19 19 19 19 19 19 19 19 18 18 18 18 18 18 18 18 18 18 18
22 23 24 24 25 25 24 24 24 23 24 24 23 23 22 21 21 21 21 21 21 20 20 20 20 20 20 20 20 19 19 19 19 19 19 19 19 19 18 18 18 18 18 18 18 18 18 18 18
23 24 25 25 25 25 24 24 24 24 24 24 23 22 22 21 21 21 21 21 21 21 21 20 20 20 20 20 20 19 19 19 19 19 19 19 19 19 19 18 18 18 18 18 18 18 18 18 18
24 24 25 25 25 25 24 24 24 23 24 23 23 22 22 22 21 21 21 21 21 21 21 21 20 20 20 20 20 20 19 19 19 19 19 19 19 19 19 18 18 18 18 18 18 18 18 18 18
25 24 24 25 25 25 25 24 23 24 23 23 22 22 22 22 22 21 21 21 21 21 21 21 20 20 20 20 20 20 20 19 19 19 19 19 19 19 19 18 18 18 18 18 18 18 18 18 18
24 24 24 25 25 25 25 23 23 24 23 22 22 22 22 22 22 22 22 21 21 21 21 21 21 20 20 20 20 20 19 19 19 19 19 19 19 19 19 18 18 18 18 18 18 18 18 18 18
23 23 24 24 25 25 24 24 23 23 23 22 22 22 22 22 22 22 22 22 22 21 21 21 21 21 20 20 20 20 20 19 19 19 19 19 19 19 19 18 18 18 18 18 18 18 18 18 18
23 23 24 24 24 24 23 23 23 23 22 22 22 22 22 22 22 22 22 22 22 21 21 21 21 21 20 20 20 20 19 19 19 19 19 19 19 19 19 18 18 18 18 18 18 18 18 18 18
24 24 24 24 24 24 23 23 22 22 22 22 22 22 22 22 22 22 22 22 22 21 21 21 21 21 21 20 20 20 20 20 19 19 19 19 19 19 19 18 18 18 18 18 18 18 18 18 17
24 23 23 24 24 24 23 23 23 22 22 22 22 22 22 23 22 22 22 22 22 22 22 21 21 21 21 21 20 20 20 20 19 19 19 19 19 19 18 18 18 18 18 18 18 18 18 17 17
24 23 24 24 24 23 23 23 22 23 23 23 23 23 23 23 23 23 22 22 22 22 22 21 21 21 21 21 20 20 20 20 19 19 19 19 19 19 19 18 18 18 18 18 18 17 17 17 17
23 24 24 24 23 22 23 22 22 21 21 22 22 22 22 23 23 23 22 22 22 22 22 21 21 21 21 21 20 20 20 20 20 19 19 19 19 19 18 18 18 18 18 18 18 17 17 17 17
24 24 24 23 22 21 22 21 21 21 21 21 21 22 22 23 23 23 23 23 22 22 22 22 21 21 21 20 20 20 20 20 19 19 19 19 19 19 18 18 18 18 18 18 17 17 17 17 17
25 23 22 20 20 21 22 21 21 20 21 21 21 22 22 22 23 23 23 23 22 22 22 22 21 21 21 20 20 20 20 20 19 19 19 19 19 19 18 18 18 18 18 17 17 17 17 17 17
24 22 21 22 20 20 20 21 20 21 21 21 21 22 22 22 22 23 23 22 22 22 22 22 22 21 21 20 20 20 20 20 19 19 19 19 19 19 18 18 18 18 18 17 17 17 17 17 17
23 22 21 22 21 20 20 20 21 22 22 22 22 22 22 22 22 23 23 23 22 22 22 22 22 21 21 21 20 20 20 19 19 19 19 19 19 19 18 18 18 18 17 17 17 17 17 17 16
23 21 21 19 20 20 20 20 21 22 21 21 21 21 21 22 22 22 22 22 22 22 22 22 22 22 21 21 20 20 20 19 19 19 19 19 19 18 18 18 18 17 17 17 17 17 16 16 16
23 20 19 19 20 21 21 21 20 21 21 20 20 20 21 22 22 22 22 22 22 22 22 22 22 22 21 21 21 20 20 20 19 19 19 18 18 18 18 18 17 17 17 17 16 16 16 16 16
22 21 19 18 19 20 20 21 21 20 20 20 20 21 21 21 22 22 22 22 22 22 22 22 21 21 21 21 20 20 20 19 19 19 19 18 18 18 18 17 17 17 17 16 16 16 16 15 15
23 21 19 21 19 18 19 20 22 20 20 20 20 20 21 21 22 22 22 22 22 21 21 21 21 21 21 20 20 20 19 19 19 18 18 18 18 18 17 17 17 17 16 16 16 16 15 15 15
Wind_Speed
6 5 2 1 3 4 2 3 1 2 3 2 4 5 6 3 2 2 1 5 6 5 5 7 7 7 7 8 9 10 11 12 12 13 13 13 14 14 14 14 14 14 13 13 13 13 13 13 12
5 4 1 2 3 3 3 3 2 2 3 4 5 5 6 4 3 4 3 4 6 6 5 6 7 8 8 9 9 10 10 11 12 12 13 13 13 13 13 13 13 13 13 13 12 12 12 12 11
5 3 1 2 2 2 1 1 3 4 4 3 4 5 4 2 2 3 3 6 6 5 5 6 8 8 8 9 9 9 10 10 11 11 12 12 12 12 12 12 12 11 11 12 11 11 11 11 11
3 1 2 3 2 1 2 1 4 4 3 5 5 5 4 3 2 3 7 8 7 4 5 6 8 8 8 9 9 9 10 10 10 10 10 11 11 11 11 10 10 10 10 10 10 10 10 10 9
1 2 4 3 3 2 0 1 2 3 3 4 5 5 3 4 6 8 8 8 7 4 4 5 8 8 8 8 8 9 9 9 9 9 9 10 10 9 9 9 9 9 9 9 9 9 9 9 8
2 3 4 2 3 2 1 1 2 4 5 4 5 4 3 2 6 7 6 6 5 5 4 4 7 7 7 8 8 8 8 8 8 8 8 8 8 8 8 8 8 8 8 9 8 8 8 8 8
3 3 2 0 2 2 1 2 2 4 5 3 4 5 2 2 3 6 5 5 4 4 3 3 4 5 6 6 6 7 7 7 7 7 7 7 7 7 7 7 7 8 8 8 8 7 7 7 7
2 3 2 1 0 1 1 2 2 3 3 4 4 6 4 4 6 7 6 5 4 3 2 2 2 3 3 4 5 5 6 6 6 6 6 6 6 5 5 6 6 7 7 7 7 7 6 7 6
2 4 0 3 3 1 0 1 1 2 5 3 3 4 5 11 10 8 6 4 2 2 1 1 1 2 2 2 3 3 4 4 4 4 4 4 3 3 3 4 5 5 6 6 6 6 6 5 5
3 2 5 4 4 3 2 1 2 3 4 3 5 7 10 12 10 9 7 5 4 3 3 1 1 1 1 2 2 2 3 3 3 3 3 3 2 2 2 2 3 4 4 4 4 4 5 4 3
3 4 3 2 3 4 2 1 2 6 3 5 7 12 13 11 9 8 7 6 5 4 3 3 2 1 1 1 2 2 2 2 2 2 2 2 2 2 2 1 1 1 1 1 1 1 2 2 2
3 4 4 2 2 3 3 3 3 4 5 6 11 14 14 12 10 9 8 6 4 4 4 3 2 2 1 1 1 1 1 1 1 2 2 3 2 1 1 1 1 1 0 1 0 1 1 2 2
3 2 2 2 2 2 3 3 2 2 2 8 12 13 13 12 9 8 7 6 5 5 4 4 3 3 2 1 1 1 1 1 2 2 2 3 2 1 1 0 0 0 0 1 1 1 1 2 2
2 1 1 1 2 2 4 2 2 3 7 10 12 12 11 11 10 8 7 7 6 6 5 4 4 4 3 2 1 1 1 1 2 1 2 3 3 2 1 0 0 0 0 1 1 1 1 1 1
1 2 3 1 2 2 4 1 3 5 10 10 10 10 10 10 9 9 9 9 8 7 5 5 5 4 3 3 2 1 1 2 1 1 2 3 3 3 2 1 0 1 1 2 2 2 2 1 1
2 3 1 2 2 3 5 4 4 7 10 10 9 9 8 8 9 9 9 8 7 6 6 5 5 5 4 3 2 1 1 2 1 2 2 2 3 3 3 2 1 1 2 2 2 2 2 1 1
3 0 2 3 1 2 3 4 3 8 10 10 9 9 9 8 8 8 8 9 8 7 6 6 5 5 5 4 3 2 1 1 1 2 1 2 2 3 3 2 1 1 2 1 2 2 2 1 1
3 2 2 3 3 3 3 4 3 7 10 10 9 8 8 9 10 8 8 8 7 7 6 6 6 5 5 3 2 1 1 0 1 1 1 2 2 3 3 2 1 2 2 1 1 2 2 1 1
4 3 3 4 2 3 5 5 4 7 8 9 9 9 10 10 8 7 7 7 7 6 6 6 6 5 4 3 3 2 1 1 0 1 1 2 2 3 3 2 2 2 2 2 2 2 2 1 1
3 3 3 3 1 2 2 3 3 7 10 11 12 12 11 9 6 7 7 7 7 8 7 7 7 6 5 4 3 2 2 1 1 1 0 1 2 3 3 3 2 2 2 2 2 2 2 1 1
4 6 5 3 2 3 2 4 2 3 4 6 8 9 9 10 9 9 9 8 7 7 8 8 7 6 5 5 3 3 2 2 1 1 0 1 1 2 2 3 3 2 2 2 2 2 2 1 1
5 6 5 3 3 1 1 3 5 3 3 6 7 7 8 8 8 8 9 9 9 9 8 7 6 6 5 6 5 5 4 3 3 2 1 0 0 1 2 2 3 3 2 2 2 2 2 3 1
5 2 3 3 3 1 1 2 7 1 4 7 7 7 7 8 9 9 10 10 9 8 7 7 6 5 5 6 7 6 4 3 2 1 1 0 0 0 1 2 2 2 2 2 2 2 2 2 2
5 6 6 6 5 1 3 3 6 4 7 6 7 7 7 7 7 7 8 7 6 6 6 6 7 6 5 6 6 7 6 5 3 2 2 1 0 1 0 1 2 2 2 2 2 2 3 2 2
5 6 4 4 3 5 2 3 8 7 6 7 7 7 6 6 6 6 7 7 8 8 7 7 7 7 6 6 7 7 6 6 6 5 4 3 2 1 2 1 2 2 2 2 2 2 2 2 2
5 9 8 5 5 4 1 5 7 5 4 3 4 4 5 5 5 7 7 7 7 7 7 7 8 7 7 7 7 6 6 5 4 5 4 4 3 3 2 2 2 2 2 2 2 2 2 2 2
6 4 6 7 3 0 5 6 8 2 1 1 3 4 5 5 6 6 6 6 7 7 7 7 8 7 7 8 7 6 6 6 6 5 4 3 3 3 3 3 2 2 2 2 2 2 1 1 1
6 9 6 6 6 3 5 5 5 5 4 3 4 5 5 4 4 4 4 4 5 6 6 5 6 7 6 6 7 7 6 6 5 5 4 4 3 3 3 3 3 2 2 2 2 2 1 2 1
4 5 5 5 6 7 4 7 5 7 6 6 6 5 5 5 4 4 3 4 3 3 4 5 5 5 5 5 5 5 5 5 4 4 4 4 4 4 4 4 3 3 2 2 2 2 1 2 1
5 7 8 6 5 5 5 7 4 4 4 5 4 3 3 4 4 3 3 3 3 3 3 4 5 5 5 5 4 4 4 4 4 4 4 4 4 4 4 4 3 3 3 3 3 3 2 2 1
Wind_Direction
173 148 140 99 50 42 1 333 11 54 52 48 83 86 97 87 115 141 100 132 130 135 146 143 131 123 117 115 116 118 117 119 121 122 123 125 129 133 135 138 140 140 140 139 138 139 138 139 139
151 154 170 52 67 43 339 339 63 67 135 122 80 70 66 55 51 98 111 143 134 135 137 139 131 125 119 115 116 117 119 121 123 124 125 126 129 133 134 136 138 140 141 140 140 140 139 140 141
169 193 80 59 71 142 296 331 113 95 100 90 78 63 70 79 98 124 148 139 125 123 129 144 132 128 124 119 118 117 119 122 123 123 125 127 130 133 133 133 135 140 142 143 144 144 143 143 143
165 125 53 57 24 271 222 210 127 120 70 54 90 69 61 73 123 130 133 132 125 120 130 146 135 133 129 125 120 119 119 122 123 124 126 128 132 133 133 134 135 139 141 143 147 147 146 146 147
109 81 52 28 336 317 318 161 125 107 80 59 86 88 48 23 93 116 129 133 133 129 129 145 137 132 130 129 127 124 121 122 126 127 128 131 133 137 139 140 142 144 145 144 147 150 150 152 155
64 67 67 16 332 340 20 55 88 84 90 87 86 87 51 61 107 128 129 132 133 130 125 140 142 135 132 131 134 132 127 125 128 130 131 132 135 140 145 148 150 152 153 153 155 157 158 158 159
101 83 92 8 333 348 38 46 99 105 102 109 111 95 92 118 129 125 117 113 110 112 112 118 138 145 139 136 138 137 133 129 128 133 137 138 139 141 146 152 157 159 161 162 165 167 166 164 163
139 96 53 358 323 306 31 34 86 108 108 111 105 126 158 172 132 110 104 95 98 96 95 104 115 120 130 141 144 142 137 133 132 133 137 135 136 141 150 159 162 164 168 171 177 183 179 176 174
120 74 183 213 186 217 87 67 95 68 102 88 88 126 145 138 127 115 108 94 112 135 100 95 100 107 119 137 154 142 131 123 125 129 134 123 118 131 150 170 174 176 176 179 186 188 185 180 179
102 140 223 210 180 172 195 173 152 101 98 72 71 89 119 134 139 142 147 153 166 186 194 179 171 135 120 150 126 109 107 99 98 100 105 105 108 122 136 163 185 185 181 187 191 182 180 181 168
161 203 235 233 185 157 165 141 120 133 176 187 158 143 142 147 152 159 165 170 183 188 191 195 186 166 138 94 100 98 104 98 92 95 107 107 96 79 77 67 42 19 179 188 201 210 176 172 167
193 242 227 242 151 147 160 150 138 173 212 169 154 149 152 160 168 173 176 181 172 169 195 200 186 170 168 132 105 110 110 105 107 108 117 117 104 82 78 87 47 26 342 105 95 153 147 148 170
214 263 246 207 179 172 139 164 154 194 143 127 138 147 159 167 173 177 178 176 170 178 190 193 181 182 176 150 174 132 133 148 145 129 139 141 133 128 130 143 86 224 214 157 151 140 136 147 163
239 256 332 295 179 167 148 167 139 181 136 137 150 164 171 176 178 174 176 179 184 189 193 186 180 180 165 166 172 156 160 157 139 146 165 169 165 163 150 129 43 355 171 142 129 135 134 152 155
352 17 5 342 133 160 125 54 209 168 144 152 167 174 178 186 183 185 188 188 191 191 188 184 184 173 171 183 185 165 161 148 147 186 179 176 181 181 167 156 184 216 167 127 104 87 94 115 126
37 58 5 284 125 137 130 238 234 155 152 167 180 184 188 195 195 196 192 190 192 186 186 191 185 174 179 179 178 161 147 145 165 182 181 189 187 179 159 157 194 177 139 130 122 105 105 104 115
30 51 261 288 190 138 157 231 218 160 166 180 187 193 196 199 203 203 197 194 191 191 186 183 186 178 181 177 167 157 128 143 175 177 178 198 187 177 158 152 157 131 120 131 145 115 127 133 127
243 249 266 250 221 146 196 238 220 175 176 188 194 197 202 206 212 203 195 192 189 189 187 185 187 186 172 156 138 113 88 85 143 168 190 188 179 165 153 140 129 124 115 107 119 111 98 117 133
192 201 251 256 212 172 217 239 220 191 187 195 201 200 206 216 216 201 192 182 176 180 184 187 185 183 161 148 155 160 196 213 197 199 203 194 180 161 146 136 118 116 121 126 120 120 100 75 84
186 218 253 294 302 168 224 267 241 199 200 200 201 205 207 209 198 197 193 185 183 186 190 189 187 180 175 171 163 154 151 167 190 212 179 202 188 172 158 143 136 131 125 107 103 110 112 78 78
222 206 218 216 27 43 47 320 264 234 211 216 215 211 206 204 201 199 193 194 188 194 196 198 192 182 179 164 134 114 88 60 54 18 297 275 198 173 155 149 144 137 140 144 132 132 136 142 78
239 226 196 173 113 306 80 278 283 245 232 224 223 209 207 210 203 197 192 191 196 201 193 191 185 180 174 163 161 160 165 182 204 207 211 273 173 162 167 154 144 140 144 148 157 143 154 150 155
211 133 127 127 131 55 15 185 284 272 238 238 223 209 206 206 199 195 193 194 198 195 186 182 176 180 176 174 177 174 174 185 182 168 153 165 359 235 186 158 142 139 145 153 152 140 144 152 160
136 76 60 56 75 304 246 183 274 239 229 233 221 211 200 196 192 188 186 186 188 183 179 174 174 188 186 182 181 181 180 178 170 187 195 205 239 286 246 155 149 158 159 166 168 154 150 158 154
111 99 42 6 9 251 257 194 249 253 237 216 211 210 198 185 184 182 175 182 186 182 184 181 182 196 193 186 190 190 188 186 189 197 196 192 202 223 231 190 165 168 172 167 155 148 153 165 161
174 147 160 190 216 269 302 234 254 264 259 217 195 187 169 166 175 182 183 181 181 183 185 183 187 198 194 192 198 193 187 196 205 203 195 194 204 212 198 175 173 178 172 165 149 149 168 161 168
147 172 159 132 137 219 277 284 300 315 346 140 148 148 163 173 174 171 174 180 182 181 186 187 186 193 194 194 194 189 193 199 204 201 193 193 202 201 183 171 168 180 169 160 148 149 173 155 168
140 143 111 129 150 226 281 272 255 259 245 206 181 182 185 175 172 169 170 174 187 185 182 182 188 193 191 190 194 196 196 198 198 191 191 193 196 189 171 164 166 172 170 155 146 156 167 151 186
113 112 118 124 151 160 228 266 233 216 209 201 203 194 187 184 181 177 180 170 161 156 164 176 187 185 180 188 191 190 189 186 183 185 189 188 184 181 178 178 171 171 169 163 154 169 159 162 190
164 165 153 158 199 173 178 260 278 211 211 198 197 179 175 174 172 161 151 136 131 145 162 182 189 190 190 187 180 185 184 172 177 194 196 188 185 184 182 169 164 171 174 173 169 183 182 176 191
Height
1499 1499 1500 1502 1504 1510 1511 1503 1497 1497 1497 1497 1497 1498 1501 1504 1507 1512 1508 1507 1508 1509 1509 1509 1510 1510 1510 1510 1510 1511 1511 1512 1512 1513 1514 1515 1516 1518 1520 1521 1523 1525 1527 1529 1531 1533 1535 1536 1538
1500 1500 1502 1503 1509 1520 1514 1502 1499 1498 1498 1498 1499 1501 1502 1504 1505 1506 1506 1508 1509 1510 1511 1511 1511 1512 1512 1512 1512 1513 1513 1514 1515 1515 1516 1517 1518 1520 1522 1523 1525 1527 1529 1531 1533 1534 1536 1538 1539
1501 1501 1503 1504 1512 1518 1511 1501 1499 1498 1498 1499 1501 1503 1504 1506 1506 1507 1508 1509 1511 1512 1512 1513 1513 1513 1514 1514 1515 1515 1515 1516 1517 1517 1518 1519 1521 1522 1524 1525 1527 1529 1531 1532 1534 1536 1538 1539 1541
1502 1503 1504 1509 1513 1508 1503 1500 1498 1499 1500 1500 1501 1505 1507 1508 1508 1509 1510 1511 1512 1513 1514 1515 1515 1515 1516 1516 1517 1517 1517 1518 1518 1519 1520 1521 1523 1524 1525 1527 1528 1530 1532 1534 1536 1537 1539 1540 1542
1502 1503 1508 1514 1510 1504 1500 1499 1499 1499 1500 1502 1503 1506 1509 1510 1510 1511 1512 1513 1514 1515 1516 1516 1517 1517 1518 1518 1518 1519 1520 1520 1521 1521 1522 1523 1524 1526 1527 1529 1530 1532 1533 1535 1537 1538 1540 1541 1543
1503 1504 1516 1519 1511 1503 1501 1500 1501 1501 1502 1504 1505 1507 1511 1512 1512 1513 1514 1515 1516 1517 1518 1518 1519 1520 1520 1520 1521 1521 1522 1522 1523 1524 1524 1525 1526 1527 1529 1530 1531 1533 1535 1536 1538 1539 1541 1542 1544
1505 1508 1515 1514 1512 1506 1503 1502 1502 1503 1504 1505 1506 1508 1511 1512 1514 1514 1515 1517 1518 1519 1520 1520 1521 1522 1522 1523 1523 1523 1524 1524 1525 1526 1526 1527 1528 1529 1530 1531 1532 1534 1535 1537 1539 1540 1541 1543 1544
1503 1508 1513 1513 1512 1509 1504 1503 1504 1504 1505 1506 1507 1508 1511 1513 1514 1515 1516 1518 1519 1521 1522 1522 1523 1524 1524 1524 1525 1525 1526 1526 1527 1527 1528 1529 1529 1530 1531 1532 1534 1535 1536 1538 1539 1540 1542 1543 1545
1504 1511 1516 1512 1509 1507 1504 1504 1505 1505 1506 1507 1508 1509 1511 1512 1514 1516 1517 1519 1521 1522 1523 1524 1525 1525 1526 1527 1527 1527 1528 1528 1529 1529 1530 1530 1531 1532 1533 1534 1535 1535 1537 1538 1539 1540 1542 1543 1545
1505 1513 1509 1502 1502 1503 1504 1504 1505 1506 1507 1508 1509 1510 1512 1513 1515 1516 1518 1519 1521 1522 1524 1525 1526 1527 1528 1528 1529 1529 1529 1530 1530 1531 1531 1532 1532 1533 1534 1534 1535 1536 1537 1538 1539 1540 1542 1543 1544
1504 1506 1501 1499 1500 1502 1503 1504 1505 1506 1508 1507 1508 1510 1512 1514 1516 1517 1519 1520 1522 1524 1525 1526 1527 1528 1529 1529 1530 1530 1531 1531 1532 1532 1532 1533 1533 1534 1534 1535 1535 1536 1537 1538 1539 1540 1541 1543 1544
1503 1501 1500 1499 1500 1501 1503 1504 1505 1505 1505 1506 1508 1509 1512 1514 1516 1518 1519 1521 1523 1524 1526 1527 1528 1529 1530 1531 1531 1531 1532 1532 1532 1533 1533 1534 1534 1534 1535 1535 1536 1537 1538 1538 1539 1540 1541 1542 1544
1501 1500 1499 1499 1500 1501 1503 1504 1504 1505 1506 1507 1509 1511 1513 1515 1517 1519 1521 1522 1524 1525 1526 1528 1529 1530 1531 1531 1532 1532 1533 1533 1533 1534 1534 1535 1535 1535 1536 1536 1537 1537 1538 1538 1539 1540 1541 1542 1543
1500 1499 1499 1498 1499 1501 1502 1504 1505 1505 1507 1508 1510 1512 1514 1515 1517 1519 1521 1522 1524 1525 1527 1528 1529 1530 1531 1532 1533 1533 1534 1534 1534 1535 1535 1535 1536 1536 1536 1537 1537 1538 1538 1539 1539 1540 1541 1541 1542
1500 1501 1500 1499 1499 1501 1503 1507 1505 1505 1507 1509 1511 1512 1515 1516 1518 1519 1520 1522 1524 1525 1527 1528 1530 1531 1532 1533 1533 1534 1535 1535 1535 1536 1536 1536 1537 1537 1537 1537 1538 1538 1539 1539 1539 1540 1540 1541 1542
1501 1506 1510 1502 1500 1501 1507 1513 1503 1505 1507 1509 1511 1513 1515 1516 1517 1519 1521 1522 1524 1526 1527 1529 1530 1531 1532 1533 1534 1535 1535 1536 1536 1536 1537 1537 1537 1538 1538 1538 1538 1539 1539 1539 1539 1540 1540 1541 1542
1509 1515 1513 1506 1500 1501 1505 1509 1503 1503 1506 1509 1511 1512 1514 1515 1516 1518 1520 1522 1524 1526 1527 1529 1530 1531 1532 1533 1534 1535 1536 1536 1536 1537 1537 1537 1538 1538 1538 1538 1538 1539 1539 1539 1540 1540 1540 1541 1541
1516 1514 1512 1510 1502 1502 1506 1506 1502 1503 1505 1507 1509 1511 1513 1513 1514 1516 1519 1521 1523 1525 1527 1528 1530 1531 1532 1533 1534 1535 1535 1536 1536 1537 1537 1537 1538 1538 1538 1538 1538 1539 1539 1539 1540 1540 1540 1540 1541
1505 1509 1511 1506 1499 1503 1505 1505 1502 1502 1504 1506 1508 1509 1510 1511 1513 1516 1518 1520 1522 1524 1526 1527 1528 1530 1531 1532 1533 1534 1535 1535 1536 1537 1537 1537 1538 1538 1538 1538 1538 1538 1539 1539 1539 1540 1540 1540 1540
1504 1509 1510 1505 1499 1502 1506 1505 1501 1500 1501 1502 1504 1505 1507 1509 1511 1513 1516 1518 1520 1522 1524 1526 1527 1529 1530 1531 1533 1534 1535 1535 1536 1537 1537 1537 1537 1538 1538 1538 1538 1538 1538 1538 1539 1539 1539 1539 1540
1503 1507 1506 1507 1503 1503 1506 1509 1504 1500 1500 1501 1502 1503 1504 1507 1509 1511 1513 1515 1518 1520 1522 1524 1526 1528 1529 1531 1532 1533 1534 1534 1535 1536 1536 1537 1537 1537 1537 1537 1537 1537 1537 1537 1538 1538 1539 1539 1539
1506 1496 1498 1503 1511 1518 1513 1527 1509 1503 1501 1499 1500 1501 1502 1505 1506 1508 1511 1513 1516 1518 1520 1523 1525 1527 1528 1530 1531 1531 1532 1533 1533 1534 1535 1535 1536 1536 1536 1536 1536 1536 1536 1536 1537 1537 1537 1538 1538
1496 1493 1498 1503 1512 1520 1518 1525 1516 1505 1504 1499 1497 1498 1499 1501 1503 1505 1508 1510 1513 1516 1519 1521 1523 1525 1527 1528 1529 1530 1531 1531 1532 1533 1533 1534 1535 1535 1535 1535 1535 1535 1535 1535 1536 1536 1536 1536 1537
1490 1497 1504 1513 1520 1532 1521 1526 1521 1508 1500 1495 1494 1494 1495 1497 1500 1502 1506 1508 1511 1514 1516 1519 1521 1523 1525 1526 1527 1528 1529 1529 1530 1531 1532 1533 1533 1533 1534 1534 1534 1534 1534 1534 1535 1535 1535 1535 1536
1492 1509 1529 1532 1540 1536 1521 1523 1517 1495 1491 1490 1490 1491 1493 1495 1497 1500 1503 1505 1508 1511 1514 1516 1518 1520 1521 1523 1524 1525 1526 1528 1528 1529 1530 1531 1531 1532 1532 1533 1533 1533 1533 1533 1533 1534 1534 1534 1534
1494 1503 1526 1538 1541 1535 1522 1523 1505 1490 1487 1487 1488 1489 1491 1494 1495 1498 1501 1503 1506 1509 1512 1513 1515 1517 1518 1520 1521 1523 1524 1525 1526 1527 1528 1529 1529 1530 1531 1531 1531 1531 1531 1531 1532 1532 1532 1533 1533
1495 1502 1503 1522 1529 1535 1528 1515 1499 1487 1487 1487 1487 1488 1490 1492 1494 1496 1499 1502 1504 1506 1509 1511 1512 1513 1515 1517 1519 1520 1521 1523 1524 1525 1526 1526 1527 1528 1529 1529 1529 1530 1530 1530 1530 1530 1530 1531 1531
1484 1495 1510 1522 1535 1538 1527 1520 1511 1494 1490 1488 1487 1487 1489 1490 1492 1495 1497 1499 1502 1504 1506 1508 1509 1510 1513 1514 1516 1517 1518 1519 1521 1522 1523 1524 1525 1526 1526 1526 1526 1527 1528 1528 1528 1528 1529 1529 1529
1490 1497 1506 1517 1520 1533 1536 1521 1491 1488 1486 1486 1486 1486 1488 1490 1491 1493 1496 1498 1500 1502 1504 1506 1507 1508 1511 1512 1513 1515 1516 1517 1518 1520 1521 1522 1523 1523 1524 1524 1524 1525 1525 1526 1526 1526 1527 1527 1527
1481 1488 1500 1511 1519 1522 1526 1515 1482 1482 1483 1484 1485 1486 1487 1489 1491 1493 1495 1497 1499 1500 1502 1504 1505 1506 1508 1510 1511 1512 1513 1515 1516 1517 1518 1519 1520 1521 1521 1522 1522 1522 1523 1523 1523 1523 1524 1524 1525